Dewpoint
-4 -4 -4 -4 -5 -6 -9 -9 -9 -12 -15 -13 -14 -13 -12 -12 -11 -11 -6 -5 -4 1 4 11 11 12 12 11 12 12 14 15 12 12 13 10 10 10 10 9 10 10 10 13 13
-1 -3 -4 -4 -4 -4 -5 -9 -12 -11 -12 -14 -13 -14 -13 -12 -12 -3 -5 -8 -7 1 5 9 9 11 10 9 10 10 14 14 12 11 11 11 11 9 9 8 10 11 11 13 14
3 1 -3 -4 -4 -4 -4 -4 -8 -14 -13 -13 -14 -14 -13 -13 -3 -3 -3 -9 -5 2 6 8 8 8 7 8 8 9 13 12 12 12 11 11 11 10 8 11 10 11 12 13 15
0 2 2 -2 -4 -4 -4 -3 -3 -9 -17 -14 -14 -15 -15 -14 1 -0 -6 -9 -2 1 5 7 7 8 6 7 8 11 11 13 13 13 12 11 11 11 10 13 9 10 11 12 13
-1 -2 -0 2 -2 -5 -4 -4 -3 -3 -12 -17 -15 -15 -16 -2 -3 -3 -7 -8 -2 6 7 7 7 6 6 7 9 9 11 12 13 13 13 12 11 12 10 9 10 10 11 11 11
1 0 -2 -2 2 -3 -5 -4 -4 -3 -3 -16 -19 -18 -14 -2 -3 1 -4 -9 3 3 7 6 7 5 6 8 9 10 12 12 13 13 12 12 12 11 10 10 10 10 10 10 10
2 1 1 -2 -2 1 -5 -4 -4 -4 -3 -4 -16 -20 -1 -4 -3 3 -1 1 2 2 1 2 5 6 5 6 8 10 11 11 13 13 12 13 13 12 14 10 10 9 10 10 10
2 1 1 1 -3 1 -2 -5 -4 -4 -3 -4 -4 -12 -2 -6 -3 3 0 -0 -3 -2 -1 1 5 5 5 6 8 10 10 13 10 12 12 12 15 11 11 10 9 9 10 10 11
2 1 1 1 -3 -1 -0 -5 -5 -4 -4 -3 -2 2 -7 -8 -3 2 -2 -4 -4 -3 1 6 6 5 5 7 8 8 6 6 11 9 10 11 12 11 10 10 10 8 9 10 11
1 1 0 1 -1 -2 1 -4 -6 -5 -4 -2 2 1 -1 -8 -3 0 -3 -4 -3 -3 -1 7 5 5 5 5 8 5 5 5 7 10 10 11 11 10 9 10 10 8 10 10 11
-1 -0 -1 0 -0 -2 1 -5 1 3 1 -4 -6 -4 -7 -8 -1 -1 -3 -4 -4 -4 3 5 6 5 3 2 0 1 2 4 5 7 11 12 11 10 9 10 10 9 9 10 10
-3 -2 -1 -0 -0 -2 1 1 -3 -1 -1 -4 -4 -6 -2 -3 -2 -1 -2 -4 -5 -3 1 4 5 1 -0 -1 -0 1 -0 1 6 8 11 11 12 10 9 10 10 10 9 9 10
-3 -2 0 -0 -1 -2 2 -0 -4 -2 -4 -3 -4 -6 -2 -2 -3 -2 -3 -4 -5 -4 -1 3 -1 -1 -0 -0 -0 -1 -0 1 4 5 10 11 15 13 10 10 10 10 8 8 9
-2 1 -0 -1 -0 2 3 0 0 -3 -1 -4 -5 -5 -3 -2 -3 -3 -2 -4 -4 -4 -1 -1 -2 -1 0 0 -1 -1 -2 0 2 5 13 9 16 14 11 11 10 9 9 8 8
1 0 -1 2 5 3 1 -1 -2 -2 5 -2 -5 -5 -4 -2 -3 -3 -3 -4 -3 -5 -4 -2 -2 -1 1 0 -2 -1 -1 2 2 3 4 15 12 13 10 12 11 10 9 9 8
0 -1 -2 1 2 2 -0 -2 -2 1 4 -2 -2 -4 -3 -3 -4 -3 -3 -3 -4 -5 -6 -5 -5 -3 -3 -3 -3 -2 -1 2 3 5 5 9 3 9 14 7 9 10 9 9 9
0 -0 -0 1 1 0 -0 -1 -0 2 -1 -1 -2 -4 -3 -3 -3 -5 -3 -3 -3 -4 -4 -6 -6 -5 -4 -3 -4 -1 1 3 3 8 10 9 1 11 5 3 4 7 9 9 9
0 2 0 3 2 1 -0 -2 2 -3 -1 -5 -5 -4 -2 -4 -3 -5 -4 -3 -5 -7 -7 -4 -5 -8 -6 -3 -2 -2 0 2 5 1 -1 2 3 5 1 3 5 6 7 9 9
-1 0 4 2 2 1 -3 -1 -1 -3 -5 -6 -5 -3 -2 -3 -4 -3 -4 -4 -5 -7 -4 -4 -4 -8 -8 -7 -5 -3 -1 -3 -1 -3 -2 -3 -1 -3 1 4 5 4 4 6 8
3 3 2 1 2 0 -2 0 -3 -6 -6 -5 -2 -3 -1 -2 -2 -3 -3 -5 -5 -6 -7 -5 -1 -5 -8 -8 -8 -8 -7 0 -1 3 3 -1 2 -1 3 4 4 3 4 5 6
5 3 2 0 0 -2 -1 -1 -4 -6 -4 -3 -2 -2 -2 -2 -2 -2 -3 -5 -6 -6 -6 -5 -4 -3 -5 -4 -5 -5 -4 -4 -3 -2 -0 1 2 1 1 1 3 3 4 6 6
5 3 2 0 -1 -2 -1 -3 -3 -3 -1 -3 -2 -1 -1 -1 -1 -1 -1 -3 -5 -6 -4 -5 -4 -1 -2 -5 -5 -5 -4 -4 -2 1 -0 2 0 -4 -2 -1 0 3 5 6 7
5 3 1 1 2 0 -1 -2 -1 -1 -1 0 0 -1 -1 1 2 -1 -3 -4 -3 -3 -2 -3 -1 0 -1 -3 -5 -3 -4 -5 -4 -4 0 1 -1 -1 -1 -0 0 2 5 7 8
5 3 2 1 1 1 2 1 1 1 -0 0 0 0 1 2 0 1 -1 -4 -3 -2 1 0 -1 0 1 -0 1 3 1 -2 -3 -1 -1 -2 -2 0 0 0 2 2 5 7 9
3 3 5 3 2 2 2 2 2 1 1 1 2 1 2 4 3 2 1 1 -1 1 -0 -1 1 -0 -1 -2 -3 -3 -2 -1 1 0 2 -1 -2 -3 1 2 -1 2 5 7 9
3 5 1 1 2 1 2 2 3 1 2 2 3 1 3 4 3 4 3 5 4 2 3 1 4 2 2 -1 -2 -1 -1 -2 -2 -3 -2 -1 -1 -4 -2 -1 -1 0 4 7 8
3 4 5 1 0 -0 3 3 2 1 1 1 1 3 2 2 4 3 3 3 2 3 4 5 5 6 6 2 1 3 1 -0 -2 -3 -2 -0 -1 -2 -2 -0 2 -1 4 6 8
Wind_Speed
5 5 4 3 2 2 2 5 7 9 10 10 10 9 8 8 8 8 8 8 14 10 8 7 6 5 8 5 4 7 4 4 2 1 6 3 2 2 1 5 4 4 7 16 15
5 5 4 3 3 3 2 3 6 8 9 9 10 9 8 8 9 14 12 13 13 12 10 9 8 5 10 6 2 5 3 5 6 6 3 8 4 5 7 7 7 8 10 14 16
6 5 5 4 3 3 3 3 4 6 8 9 10 9 8 6 9 8 13 11 11 13 11 9 4 8 7 4 6 6 7 9 6 5 8 1 4 8 9 6 7 9 12 15 16
7 6 5 5 5 4 3 3 3 3 5 7 9 9 8 6 3 2 9 12 11 14 11 10 9 12 4 6 8 5 6 5 5 6 7 7 1 8 1 8 8 9 13 15 16
9 8 6 6 7 6 4 3 2 1 2 5 7 8 8 8 9 3 9 14 13 12 12 11 10 6 7 4 10 7 6 4 4 4 4 5 7 7 5 5 8 12 13 13 12
10 10 9 7 7 8 6 4 3 1 1 3 6 8 9 15 3 4 9 15 12 12 12 9 6 6 6 4 7 5 1 3 2 2 4 6 7 12 10 11 11 12 12 12 11
12 11 10 9 8 9 8 6 4 3 2 2 4 8 10 8 6 7 13 15 13 12 10 9 7 11 7 6 3 4 8 6 7 6 5 1 6 4 16 12 12 12 11 12 11
13 12 11 9 7 8 9 8 5 4 4 3 3 5 8 11 6 9 14 14 13 11 9 8 8 11 8 2 9 6 6 7 9 11 9 8 4 5 7 12 13 12 12 11 12
15 13 12 8 7 8 10 9 6 5 4 5 2 5 10 9 12 13 13 14 12 11 9 8 10 15 7 12 5 12 5 5 8 8 2 9 4 8 8 11 12 14 13 13 13
16 15 13 8 6 8 10 9 7 5 5 4 6 8 11 13 16 16 14 11 13 12 11 11 12 14 13 10 4 8 10 8 5 9 8 9 6 10 13 12 14 14 15 15 13
17 17 15 10 7 10 13 10 4 5 13 12 10 5 7 14 16 16 14 12 12 13 14 17 13 14 4 2 7 10 8 9 6 4 7 9 7 17 20 17 18 16 17 16 15
18 18 16 9 9 14 18 11 3 2 10 18 7 6 4 12 16 16 14 15 15 15 17 13 13 15 6 4 8 10 11 8 5 4 10 6 7 11 18 19 19 19 20 20 21
20 18 12 5 9 16 20 15 5 3 9 16 14 15 13 13 16 17 18 18 13 16 17 16 14 2 2 8 12 13 8 9 9 8 7 7 9 15 17 20 22 24 25 21 22
19 12 3 7 5 10 15 15 10 3 6 11 13 14 13 14 12 12 18 17 10 14 14 12 18 8 11 12 9 14 7 9 11 13 1 16 2 11 17 19 19 25 27 25 23
13 6 4 13 12 9 6 9 9 4 6 13 12 11 15 17 12 14 14 20 16 12 10 15 12 13 14 15 2 13 8 12 11 15 15 6 10 8 16 16 17 24 25 26 24
7 2 9 6 15 6 7 8 9 7 2 8 10 12 15 18 11 8 14 16 14 14 14 16 15 12 12 6 5 11 13 17 16 15 11 12 9 7 4 2 13 22 27 27 25
4 3 9 15 4 8 6 12 7 8 5 9 13 17 16 13 14 11 13 15 14 10 14 17 19 18 14 15 14 11 14 14 10 8 7 17 8 10 8 5 4 10 24 27 28
2 5 9 6 4 6 9 9 9 5 3 5 4 14 14 12 13 12 13 14 16 17 14 11 15 23 19 21 16 15 13 12 14 10 12 8 3 4 1 5 2 7 8 24 27
6 5 3 5 6 6 13 10 3 1 5 5 9 10 13 13 11 15 13 13 14 15 14 6 7 7 9 19 18 17 16 13 15 17 13 8 4 5 7 7 7 6 7 13 23
5 4 4 6 5 7 9 13 2 5 7 7 13 10 12 15 13 13 13 11 14 12 13 14 12 6 12 8 13 16 17 11 11 12 13 6 9 6 10 9 6 5 7 7 13
4 8 4 5 5 11 9 3 1 4 5 6 9 7 9 11 11 15 11 12 8 7 8 15 14 16 8 11 14 8 13 14 15 12 12 10 4 8 2 1 7 7 4 8 10
8 3 6 7 10 11 9 2 3 10 4 9 6 13 12 12 9 13 17 13 7 7 12 14 14 14 17 17 16 14 16 14 12 17 11 12 11 10 7 2 3 11 7 9 10
7 3 5 8 6 7 3 6 6 6 7 5 7 4 11 11 10 13 14 3 3 8 7 12 9 13 18 16 19 12 14 14 18 16 15 14 11 15 1 6 4 6 13 12 13
6 4 6 10 8 10 3 7 4 4 11 6 10 9 12 13 14 11 13 12 4 12 7 5 17 19 17 19 4 8 20 15 17 15 17 17 18 12 9 7 10 9 17 17 17
3 4 5 1 3 6 4 4 6 6 4 6 8 9 11 11 15 15 14 17 12 11 8 12 19 21 22 25 24 21 20 19 18 19 16 19 20 6 15 22 13 14 15 20 21
7 7 3 3 2 7 5 3 8 7 4 12 5 14 6 13 15 17 17 14 9 16 10 12 16 18 22 26 24 24 23 23 24 24 22 22 21 19 7 16 19 11 16 20 24
11 6 6 3 2 5 5 7 6 6 4 6 9 9 12 10 14 17 18 20 20 18 17 16 15 18 21 21 23 24 22 26 26 25 22 21 21 19 18 5 17 14 16 19 22
Wind_Direction
13 15 15 6 348 311 258 237 232 232 230 228 229 236 240 247 252 253 242 230 223 216 201 189 211 227 239 286 347 292 269 314 341 27 311 25 48 143 8 141 56 47 34 115 148
353 348 347 343 333 323 299 260 244 238 236 231 230 235 242 256 267 258 238 228 226 212 196 198 207 236 252 271 263 347 349 351 353 328 307 180 222 216 211 167 119 96 111 129 147
341 328 316 310 307 306 304 291 268 249 237 232 230 229 237 256 283 242 224 223 208 198 194 213 265 274 312 317 358 325 2 339 297 290 303 86 248 301 244 10 187 115 139 143 149
339 322 302 285 283 286 289 292 291 275 242 229 227 223 226 228 258 249 192 200 189 177 203 216 238 260 332 7 16 298 24 16 297 295 267 236 283 278 201 201 98 128 149 153 170
349 334 312 279 261 257 259 259 272 284 252 221 218 213 208 232 253 240 176 181 178 179 201 213 243 291 334 354 322 13 13 338 8 273 270 253 240 231 187 110 112 134 154 160 169
344 334 321 297 259 244 241 239 236 227 178 195 200 199 202 243 158 234 183 185 185 191 204 226 288 341 281 27 302 6 324 352 101 171 214 211 227 234 149 148 135 145 163 163 170
336 331 321 307 273 239 230 229 223 213 186 147 177 192 229 233 193 196 187 186 190 200 213 226 267 269 340 295 332 287 278 200 152 177 160 172 264 203 212 150 146 166 173 159 172
329 325 323 303 278 236 222 221 217 210 194 169 158 185 257 197 198 187 180 184 199 206 230 246 244 270 267 346 238 260 282 177 135 181 172 202 172 158 165 187 170 168 175 174 173
324 320 323 302 281 231 211 210 210 206 198 184 157 199 228 222 195 184 181 189 196 204 221 232 241 255 250 238 330 242 331 20 145 193 199 225 142 227 206 201 205 179 174 182 182
318 315 317 299 272 216 196 193 195 205 198 197 233 232 219 204 185 182 181 190 194 205 221 226 234 239 226 281 260 345 326 322 352 151 210 233 166 178 195 233 211 193 177 185 183
314 311 309 295 251 200 179 156 169 213 210 212 173 259 141 160 174 184 186 192 201 212 221 201 230 235 215 258 331 292 298 298 49 137 231 235 193 184 183 190 239 199 188 194 183
316 312 305 282 226 195 187 198 271 10 212 219 221 228 170 175 182 190 191 201 204 220 224 223 232 261 36 277 276 286 275 10 150 214 218 258 257 232 184 200 202 210 215 199 184
321 317 306 238 202 197 195 208 266 286 259 174 203 205 189 199 203 187 199 215 202 222 228 249 229 237 256 251 268 269 350 342 315 278 239 268 342 248 212 195 217 209 223 206 195
326 324 303 153 163 186 217 220 231 273 264 138 191 216 192 200 224 214 198 213 228 241 239 232 258 218 234 252 273 291 10 308 289 287 165 223 114 328 194 200 199 215 212 220 200
334 330 180 155 141 167 136 183 195 229 251 160 137 144 182 205 111 187 198 216 242 213 251 234 231 245 248 252 7 292 324 308 293 293 291 34 278 219 162 187 201 206 221 214 214
348 354 156 166 153 161 152 173 170 234 169 153 149 182 189 207 206 136 196 219 233 252 238 256 258 239 261 265 238 288 277 262 251 248 251 255 325 85 209 132 178 193 209 215 210
8 121 158 136 129 154 162 168 217 260 140 150 175 167 196 185 212 180 197 202 225 217 230 233 235 248 230 257 234 235 259 271 260 223 268 224 289 143 224 34 190 182 189 205 211
68 139 159 172 175 165 171 221 257 9 144 79 208 178 204 203 208 196 191 220 214 253 284 231 220 211 216 227 260 242 253 290 308 309 332 185 287 117 48 76 178 162 191 189 207
111 113 118 193 199 181 213 227 296 1 38 252 173 232 205 221 243 202 219 231 222 208 257 293 220 91 219 216 229 243 257 283 289 286 263 263 148 219 104 105 146 182 167 193 193
142 182 166 177 185 188 243 267 28 329 307 244 261 203 241 199 203 240 217 220 239 218 224 267 282 224 200 201 242 261 268 248 223 258 267 287 313 245 163 110 136 165 171 197 200
162 209 168 183 185 225 245 241 85 179 288 276 273 282 262 293 247 226 229 244 203 244 252 256 253 268 219 211 256 184 234 251 274 293 310 290 42 5 294 189 173 175 175 165 191
272 223 169 168 217 227 258 2 22 269 220 266 262 281 292 299 288 273 267 246 50 259 260 245 264 257 251 244 229 250 265 221 228 235 247 294 291 180 145 148 244 156 158 151 172
261 73 177 194 258 213 150 265 279 286 249 299 280 280 305 281 277 270 273 50 26 292 282 282 242 261 256 255 238 235 239 252 263 277 271 266 277 85 170 174 223 230 157 163 169
279 211 164 217 271 290 336 255 262 157 284 283 286 295 271 266 263 256 276 267 198 279 16 304 272 276 281 290 360 261 282 255 270 254 260 250 264 167 187 250 184 203 168 177 180
326 43 349 161 151 311 301 333 282 274 184 275 275 252 294 294 285 271 253 258 231 205 229 249 259 267 273 279 282 285 269 263 250 264 274 279 284 272 340 311 192 176 192 183 186
14 338 325 17 281 275 135 203 303 311 315 286 245 303 328 289 289 296 305 307 293 285 233 263 276 273 270 278 280 277 279 280 276 274 271 267 272 282 214 231 311 181 184 194 190
17 356 305 107 296 266 54 14 354 337 261 307 322 307 290 339 333 306 300 286 281 279 282 284 280 282 272 273 271 261 256 258 260 259 262 264 266 266 276 266 209 253 181 203 201
Height
1524 1523 1522 1520 1519 1519 1518 1517 1517 1517 1517 1518 1519 1519 1520 1520 1520 1520 1521 1522 1521 1521 1522 1524 1525 1524 1520 1517 1519 1516 1517 1522 1506 1507 1512 1504 1506 1509 1510 1509 1513 1516 1513 1518 1526
1524 1522 1521 1520 1519 1518 1517 1517 1516 1516 1516 1517 1518 1519 1519 1519 1519 1518 1519 1518 1519 1520 1522 1524 1522 1520 1515 1514 1513 1511 1514 1514 1510 1507 1506 1509 1509 1504 1506 1504 1511 1516 1518 1523 1528
1523 1522 1520 1519 1518 1517 1517 1516 1515 1515 1516 1516 1517 1518 1519 1519 1519 1513 1515 1516 1517 1519 1522 1522 1520 1517 1513 1510 1512 1510 1514 1515 1513 1512 1511 1509 1510 1505 1503 1510 1511 1513 1520 1525 1529
1522 1520 1519 1518 1517 1516 1516 1515 1515 1515 1515 1515 1516 1518 1518 1519 1513 1513 1513 1515 1517 1519 1522 1522 1519 1515 1511 1509 1513 1511 1511 1514 1516 1516 1513 1512 1512 1512 1506 1518 1509 1515 1520 1524 1527
1521 1519 1517 1516 1515 1515 1515 1514 1515 1514 1514 1515 1516 1517 1519 1520 1515 1512 1513 1514 1516 1519 1522 1520 1515 1512 1510 1511 1511 1508 1512 1514 1515 1514 1514 1512 1511 1511 1507 1511 1512 1517 1521 1522 1524
1519 1517 1515 1514 1513 1513 1513 1513 1514 1514 1514 1514 1515 1516 1518 1517 1513 1512 1513 1514 1518 1520 1520 1519 1514 1515 1510 1511 1510 1511 1513 1512 1514 1514 1513 1512 1511 1506 1505 1510 1515 1518 1519 1521 1524
1517 1515 1513 1511 1510 1511 1512 1512 1513 1514 1514 1514 1515 1515 1518 1512 1513 1514 1514 1515 1518 1519 1518 1518 1517 1515 1511 1508 1512 1510 1505 1503 1511 1513 1511 1515 1513 1505 1511 1509 1514 1516 1519 1521 1524
1515 1512 1510 1509 1508 1508 1510 1511 1512 1513 1514 1514 1515 1515 1511 1510 1512 1513 1514 1516 1518 1518 1519 1517 1517 1514 1511 1509 1507 1504 1499 1509 1502 1509 1507 1512 1517 1505 1507 1508 1510 1513 1517 1520 1523
1512 1510 1508 1506 1506 1506 1508 1510 1511 1512 1513 1514 1515 1515 1506 1506 1510 1512 1514 1515 1517 1518 1518 1518 1517 1511 1507 1505 1505 1497 1500 1496 1497 1499 1499 1504 1505 1506 1506 1506 1508 1510 1514 1519 1521
1508 1506 1505 1504 1504 1504 1506 1508 1510 1512 1513 1513 1513 1517 1505 1504 1506 1510 1512 1514 1515 1516 1517 1516 1512 1504 1498 1495 1517 1504 1498 1490 1492 1491 1497 1496 1500 1505 1505 1506 1505 1506 1512 1516 1519
1505 1503 1501 1501 1501 1502 1505 1508 1514 1513 1510 1499 1500 1498 1499 1500 1506 1509 1511 1513 1514 1513 1509 1507 1504 1497 1491 1490 1493 1492 1492 1489 1483 1485 1491 1488 1489 1496 1499 1505 1503 1502 1507 1510 1514
1502 1499 1497 1496 1497 1499 1501 1504 1500 1503 1498 1501 1500 1500 1500 1502 1504 1506 1509 1510 1509 1507 1503 1498 1503 1488 1487 1493 1493 1488 1484 1482 1480 1481 1487 1486 1489 1488 1491 1494 1496 1502 1502 1504 1510
1497 1494 1492 1492 1494 1496 1498 1501 1502 1502 1494 1493 1496 1498 1499 1501 1497 1501 1506 1505 1502 1502 1496 1495 1485 1488 1491 1491 1491 1480 1486 1487 1483 1474 1485 1491 1512 1483 1485 1489 1493 1495 1496 1497 1503
1494 1491 1490 1491 1496 1495 1497 1498 1501 1503 1489 1487 1491 1493 1495 1497 1494 1493 1500 1502 1498 1497 1491 1492 1486 1488 1490 1491 1485 1487 1481 1479 1477 1474 1493 1476 1516 1497 1479 1481 1483 1488 1489 1492 1495
1491 1489 1489 1490 1492 1497 1498 1500 1502 1504 1494 1479 1484 1487 1490 1492 1488 1492 1496 1498 1495 1493 1493 1491 1489 1490 1492 1487 1482 1486 1481 1477 1474 1471 1465 1512 1487 1499 1470 1476 1476 1483 1486 1488 1491
1490 1489 1489 1492 1492 1496 1498 1500 1503 1499 1489 1477 1478 1483 1484 1487 1483 1489 1493 1495 1493 1491 1487 1487 1481 1483 1481 1478 1485 1483 1483 1473 1466 1462 1475 1486 1462 1485 1490 1458 1460 1471 1481 1485 1489
1490 1489 1490 1491 1496 1496 1498 1500 1494 1485 1464 1474 1475 1476 1477 1479 1479 1484 1489 1491 1491 1499 1493 1483 1483 1481 1483 1484 1480 1481 1482 1484 1479 1489 1511 1477 1464 1484 1454 1451 1455 1459 1470 1481 1486
1492 1491 1492 1491 1495 1496 1499 1496 1493 1463 1463 1462 1465 1467 1474 1467 1474 1476 1479 1483 1481 1477 1476 1477 1482 1468 1473 1478 1480 1474 1474 1482 1500 1481 1469 1453 1468 1459 1447 1450 1456 1460 1463 1471 1479
1493 1493 1494 1494 1494 1496 1497 1486 1468 1466 1464 1467 1465 1469 1468 1463 1467 1469 1474 1470 1467 1472 1482 1469 1473 1460 1463 1466 1470 1476 1481 1464 1474 1462 1465 1451 1444 1439 1443 1448 1454 1457 1461 1464 1470
1493 1495 1496 1495 1495 1498 1492 1481 1471 1474 1476 1473 1471 1461 1465 1460 1467 1467 1465 1460 1464 1463 1467 1468 1479 1458 1461 1466 1467 1470 1461 1475 1468 1495 1493 1461 1464 1452 1445 1449 1453 1457 1460 1465 1467
1494 1490 1494 1495 1497 1495 1483 1470 1473 1478 1480 1473 1468 1468 1464 1460 1455 1461 1462 1456 1459 1458 1463 1462 1468 1467 1456 1466 1465 1466 1471 1467 1464 1464 1479 1479 1465 1453 1448 1447 1448 1454 1459 1464 1468
1493 1482 1493 1495 1494 1481 1474 1470 1483 1478 1479 1477 1475 1471 1468 1463 1464 1463 1461 1454 1460 1463 1464 1460 1461 1467 1460 1447 1448 1451 1453 1454 1470 1477 1464 1464 1459 1431 1441 1445 1446 1449 1459 1464 1468
1490 1486 1493 1494 1481 1472 1474 1478 1482 1478 1475 1476 1473 1471 1468 1472 1475 1468 1460 1458 1468 1468 1466 1462 1464 1475 1467 1451 1440 1447 1448 1449 1448 1446 1462 1471 1458 1434 1446 1446 1447 1447 1455 1464 1468
1494 1483 1488 1490 1487 1482 1478 1477 1479 1484 1483 1484 1480 1477 1476 1473 1468 1471 1465 1462 1468 1472 1475 1474 1466 1466 1470 1452 1453 1475 1459 1448 1448 1455 1452 1448 1443 1439 1439 1444 1443 1447 1451 1461 1467
1497 1491 1495 1480 1484 1485 1486 1483 1482 1481 1483 1484 1480 1479 1477 1481 1472 1468 1464 1463 1462 1467 1473 1472 1473 1464 1457 1451 1445 1446 1448 1446 1451 1446 1453 1441 1437 1431 1446 1435 1433 1440 1447 1455 1464
1501 1503 1497 1494 1495 1492 1490 1482 1487 1483 1489 1484 1483 1481 1482 1485 1480 1477 1468 1472 1470 1467 1463 1464 1468 1463 1464 1453 1448 1451 1446 1444 1443 1440 1439 1438 1436 1428 1434 1449 1434 1433 1442 1450 1457
1510 1510 1507 1499 1493 1489 1488 1493 1493 1497 1492 1493 1491 1493 1489 1486 1490 1487 1484 1482 1479 1477 1473 1473 1473 1472 1468 1453 1450 1455 1445 1441 1437 1431 1432 1440 1430 1426 1427 1427 1444 1434 1437 1444 1451